sat.trackr.live / text

‹ back to catalog

STARLINK-33776

NORAD 63851 · 2025-093R

PAYLOAD ACTIVE UNKNOWN

§ Identity

Operator
Country
US
Launch date
2025-05-07
Launch site
AFETR
Launch vehicle
Mass (kg)
RCS (m²)

Purposes: comms

External: N2YO · Heavens-Above · Gunter

§ Orbital elements

Epoch: 2026-05-24T22:12:02.451168Z

Period
94.27 min
Inclination
43.0009°
Eccentricity
0.0001078
Mean motion
15.27594124 rev/d
Perigee alt
482.3 km
Apogee alt
483.7 km
Semi-major
6,861.1 km
B*
5.1979e-4
RAAN
7.1650°
Arg perigee
278.0473°
Mean anomaly
82.0256°
Rev number
5,962

§ Raw data

STARLINK-337761 63851U 25093R   26144.92502837  .00014075  00000+0  51979-3 0  99952 63851  43.0009   7.1650 0001078 278.0473  82.0256 15.27594124 59622

JSON: /api/v1/satellites/63851 · /tle

For live sub-satellite position, see the globe view (requires WebGL).

§ Visibility from observer

Set your observer location to see the next 7 days of passes ≥ 10°. The values pass through the URL so the page stays shareable.

No JS? Fill the form by hand. The geolocation button needs JavaScript.